Weather in Afanasyevskiy

Russia / Sverdlovsk Oblast     56°51′02″N   58°20′03″E
temp.,
°C
wind,
m/s
gust,
m/s
humid.,
%
clouds,
%
prec.,
mm/h
press.,
hPa
HPBL,
m
26 july, mon
mon2623:00+9w11676 0.0 101910
02:00+11wsw0059100 0.0 102010
05:00+11wnw1162100 0.0 102017
08:00+13wnw245495 0.0 1020283
11:00+16w364274 0.0 10201994
14:00+17wnw3643100 0.0 10191922
17:00+15w376365 0.1 1019544
20:00+13wsw388385 0.6 1018226
27 july, tue
tue2723:00+9sw229057 0.6 101820
02:00+8ssw239017 0.0 101747
05:00+11sw31180100 0.0 1015351
08:00+13wsw51271100 0.1 1014778
11:00+14w377968 0.4 1013796
14:00+15wnw488734 1.4 1012832
17:00+18wnw5957100 1.8 10121579
20:00+14nnw387484 0.1 1011512
28 july, wed
wed2823:00+12nnw257271 0.1 1013175
02:00+7nw11945 0.0 101311
05:00+5w22956 0.0 101317
08:00+11w4106761 0.0 1012653
11:00+16wnw6104896 0.2 10112136
14:00+14nw51067100 1.1 10111748
17:00+15nw5104953 1.1 10121804
20:00+12nnw256414 0.0 1012389
29 july, thu
thu2923:00+7se1183100 0.0 101310
02:00+7sse2286100 0.0 101239
05:00+10s147587 0.0 1010125
08:00+14wsw4126451 0.0 1009610
11:00+20w464838 0.0 10091122
14:00+20wsw585271 0.0 10081036
17:00+23wsw484796 0.0 10071923
20:00+15s259154 2.6 100798
30 july, fri
fri3023:00+13ssw249834 6.4 100770
02:00+13ssw279927 1.1 1007187
05:00+13sw3799100 1.2 1007300
08:00+14sw3695100 0.0 1007445
11:00+18ssw3582100 0.1 1006720
14:00+19ssw458798 1.6 1005826
17:00+19s3580100 2.6 1004735
20:00+16ssw2495100 0.3 1004222